User: anonymous   Login
Location: Igri�s
(42.2144°N, 0.4320°W)
Time: 05:34:41
(UTC+00:00)
Language:

Cosmos 1697 Rocket - Orbit

View from above orbital plane
View from above orbital plane
View from above satellite
View from above satellite

Ground track
Ground track

The orbit data is extracted from the following two-line orbital elements,

1 16182U 85097B   20304.29136399 -.00000263 +00000-0 -10845-3 0  9992
2 16182 071.0019 297.7931 0008084 340.0361 109.9978 14.16257009810246
Epoch (UTC): 30 October 2020 06:59:33
Eccentricity: 0.0008084
inclination: 71.0019°
perigee height: 832 km
apogee height: 844 km
right ascension of ascending node: 297.7931°
argument of perigee: 340.0361°
revolutions per day: 14.16257009
mean anomaly at epoch: 109.9978°
orbit number at epoch: 81024

The dashed part of the orbit path shows where the satellite is in the earth's shadow,  

DLR